This is the latest recevied weather packets stored in our database for station/object N0TKN. If no packets are shown the sender has not sent any weather packets the latest 10 day(s).
| Time | Temp. | Humidity | Pressure | Rain* | Wind** | Luminosity | Snow |
|---|---|---|---|---|---|---|---|
| 1777472718 | 12.22° C | 72% | 1017.6 hPa | 0 mm | - | 537 W/m² | - |
| 1777472118 | 12.22° C | 73% | 1017.4 hPa | 0 mm | - | 504 W/m² | - |
| 1777471518 | 11.67° C | 76% | 1017.3 hPa | 0 mm | - | 470 W/m² | - |
| 1777470918 | 11.67° C | 77% | 1017.5 hPa | 0 mm | - | 435 W/m² | - |
| 1777470315 | 11.11° C | 78% | 1017.4 hPa | 0 mm | - | 401 W/m² | - |
| 1777469716 | 11.11° C | 80% | 1017.3 hPa | 0 mm | - | 366 W/m² | - |
| 1777469116 | 10.56° C | 81% | 1017.3 hPa | 0 mm | - | 331 W/m² | - |
| 1777468516 | 10.56° C | 81% | 1017.4 hPa | 0 mm | - | 296 W/m² | - |
| 1777467916 | 10.56° C | 83% | 1017.6 hPa | 0 mm | - | 260 W/m² | - |
| 1777467316 | 10° C | 85% | 1017.6 hPa | 0 mm | - | 224 W/m² | - |
| 1777466716 | 9.44° C | 86% | 1017.6 hPa | 0 mm | - | 188 W/m² | - |
| 1777466117 | 9.44° C | 87% | 1017.5 hPa | 0 mm | - | 155 W/m² | - |
| 1777465517 | 8.89° C | 88% | 1017.4 hPa | 0 mm | - | 124 W/m² | - |
| 1777464917 | 8.33° C | 90% | 1017.4 hPa | 0 mm | - | 96 W/m² | - |
| 1777464317 | 8.33° C | 91% | 1017.5 hPa | 0 mm | - | 51 W/m² | - |
| 1777463717 | 8.33° C | 91% | 1017.3 hPa | 0 mm | - | 37 W/m² | - |
| 1777463117 | 8.33° C | 91% | 1017.2 hPa | 0 mm | - | 24 W/m² | - |
| 1777462517 | 7.78° C | 91% | 1017.1 hPa | 0 mm | - | 16 W/m² | - |
| 1777461918 | 7.78° C | 93% | 1017 hPa | 0 mm | - | 8 W/m² | - |
| 1777461318 | 7.78° C | 93% | 1016.9 hPa | 0 mm | - | 3 W/m² | - |
| 1777460718 | 8.33° C | 93% | 1016.7 hPa | 0 mm | - | 1 W/m² | - |
| 1777460118 | 8.33° C | 94% | 1016.5 hPa | 0 mm | - | 0 W/m² | - |
| 1777459519 | 8.33° C | 94% | 1016.6 hPa | 0 mm | - | 0 W/m² | - |
| 1777458916 | 8.33° C | 94% | 1016.5 hPa | 0 mm | - | 0 W/m² | - |
| 1777458316 | 8.33° C | 94% | 1016.4 hPa | 0 mm | - | 0 W/m² | - |
* Rain latest hour (hover to see other rain measurements)
** Current wind speed in m/s (hover to see current wind gust speed)